Location: ????????
(56.1167°N, 38.6333°E)
Time: 21:09:25
(UTC+00:00)

Cosmos 1190 Rocket - Pass Details

Date: 18 November 2025
Orbit: 753 x 775 km, 74.1° (Epoch: 14 December)

Event Time Altitude Azimuth Distance (km) Brightness Sun altitude
Rises 16:16:25 0° 212° (SSW) 3,246 7.6 -25.1°
Reaches altitude 10° 16:18:48 10° 214° (SSW) 2,323 6.8 -25.4°
Maximum altitude 16:24:06 76° 300° (WNW) 804 4.1 -26.2°
Enters shadow 16:25:19 53° 11° (N) 951 4.3 -26.3°
